[[{"header":{"parameterUnit":"m.s-1","parameterCategory":1,"la1":30.2991,"la2":30.254,"lo1":-89.0895,"lo2":-89.0444,"dy":0.0017,"dx":0.0017,"nx":28,"ny":28,"refTime":"2023-11-11T03:00:00:Z","depth":0,"parameterNumber":2,"parameterNumberName":"U-component_of_WINDS"},"data":[0,0,0,0,0,0,0,0,0,0,0,0,0,0,0,0,0,0,0,0,0,0,0,0,0,0,0,0,0,0,0,0,0,0,0,0,0,0,0,0,0,0,0,0,0,0,0,0,0,0,0,0,0,0,0,0,0,0,-3.3045,-3.3046,0,-3.3148,-3.315,-3.3151,-3.3101,-3.3098,-3.3095,-3.3093,-3.32,-3.3205,-3.3211,0,0,0,0,0,0,0,0,0,0,0,0,0,-3.2803,-3.2808,-3.3044,-3.3046,-3.3047,-3.3148,-3.315,-3.3151,-3.3101,-3.3098,-3.3095,-3.3092,-3.3198,-3.3205,-3.3211,0,0,0,0,0,0,0,0,0,0,0,0,0,-3.2908,-3.2809,-3.3044,-3.3034,-3.3034,-3.3148,-3.315,-3.3151,-3.3102,-3.3098,-3.3094,-3.309,-3.3196,-3.3204,-3.3212,-3.3342,0,0,-3.3236,-3.324,0,0,0,0,0,0,0,0,-3.2902,-3.2917,-3.3034,-3.3035,-3.3036,-3.3107,-3.3104,-3.3215,-3.3103,-3.3076,-3.3093,-3.3088,-3.3173,-3.3182,-3.3211,-3.3347,-3.3351,-3.3237,-3.3242,-3.3245,-3.3248,0,0,0,0,0,0,0,-3.2895,-3.2912,-3.3086,-3.3036,-3.3037,-3.3025,-3.3035,-3.3125,-3.3146,-3.3078,-3.3075,-3.3088,-3.3172,-3.3203,-3.3213,-3.3353,-3.3237,-3.3244,-3.3249,-3.3252,-3.36,-3.3604,0,0,0,0,0,0,-3.2888,-3.2906,-3.3082,-3.3089,-3.2957,-3.3032,-3.3044,-3.3088,-3.3145,-3.3149,-3.3091,-3.3085,-3.3191,-3.3203,-3.3216,-3.3372,-3.3245,-3.3253,-3.3258,-3.3596,-3.3601,-3.3606,0,0,0,0,0,0,-3.2883,-3.2904,-3.3078,-3.2997,-3.3018,-3.3041,-3.3091,-3.3093,-3.3123,-3.3154,-3.3158,-3.3119,-3.3189,-3.3205,-3.3311,-3.3375,-3.3257,-3.3264,-3.3591,-3.3598,-3.3604,-3.3684,0,0,0,0,0,0,-3.2876,-3.2902,-3.2952,-3.2998,-3.3022,-3.3171,-3.3095,-3.3098,-3.3137,-3.313,-3.3181,-3.3186,-3.3187,-3.3299,-3.3319,-3.3384,-3.327,-3.3585,-3.3594,-3.3602,-3.3676,-3.3693,-3.3707,0,0,0,0,0,-3.2868,-3.297,-3.2955,-3.2976,-3.3085,-3.3175,-3.3189,-3.3187,-3.3143,-3.3193,-3.3212,-3.3184,-3.3365,-3.331,-3.3332,-3.3401,-3.3581,-3.3591,-3.3601,-3.3669,-3.369,-3.3707,0,0,0,0,0,0,-3.2931,-3.2976,-3.2959,-3.308,-3.3124,-3.3166,-3.3229,-3.3209,-3.3267,-3.3258,-3.3254,-3.3266,-3.3376,-3.3398,-3.3337,-3.3529,-3.3466,-3.3481,-3.351,-3.353,-3.3545,-3.3538,-3.3277,0,0,0,0,0,-3.2959,-3.3029,-3.3064,-3.3168,-3.319,-3.3206,-3.3245,-3.324,-3.3286,-3.3304,-3.3332,-3.3377,-3.3444,-3.3488,-3.3551,-3.3679,-3.3689,-3.3736,-3.3752,-3.3765,-3.3778,-3.3847,-3.3869,-3.3639,-3.3639,-3.3639,0,0,-3.3018,-3.3051,-3.3096,-3.3181,-3.3215,-3.3287,-3.3222,-3.3301,-3.3354,-3.3316,-3.3418,-3.344,-3.349,-3.3607,-3.366,-3.3629,-3.3844,-3.3778,-3.3787,-3.3794,-3.386,-3.3882,-3.3901,-3.3646,-3.3644,-3.3643,0,0,-3.3163,-3.3195,-3.3284,-3.3319,-3.337,-3.338,-3.3401,-3.3447,-3.346,-3.3561,-3.3534,-3.3598,-3.3713,-3.375,-3.3784,-3.3942,-3.3918,-3.3963,-3.4045,-3.4113,-3.4131,-3.4147,-3.4204,-3.4224,-3.3975,-3.3976,-3.3976,0,-3.323,-3.3337,-3.3333,-3.3414,-3.3453,-3.3421,-3.3512,-3.3546,-3.3615,-3.3643,-3.3607,-3.3751,-3.3783,-3.3908,-3.3947,-3.3975,-3.4,-3.3957,-3.4128,-3.4144,-3.4159,-3.4214,-3.4235,-3.3981,-3.398,-3.398,-3.3979,0,-3.3417,-3.3492,-3.3558,-3.3626,-3.3672,-3.3757,-3.3767,-3.3814,-3.3805,-3.3818,-3.3922,-3.3959,-3.4029,-3.4058,-3.4051,-3.4183,-3.4163,-3.4128,-3.4065,-3.4186,-3.4237,-3.4258,-3.3988,-3.3986,-3.3985,-3.3983,0,0,-3.3605,-3.3669,-3.3694,-3.3724,-3.3778,-3.3836,-3.392,-3.3989,-3.4029,-3.4078,-3.4149,-3.4247,-3.4215,-3.4254,-3.425,-3.4309,-3.4433,-3.4267,-3.4268,-3.4297,-3.4581,-3.4608,-3.4632,-3.4417,-3.4421,-3.4424,-3.4577,0,-3.3754,-3.3901,-3.39,-3.4036,-3.4106,-3.4076,-3.415,-3.4191,-3.4206,-3.4267,-3.4283,-3.4353,-3.4305,-3.4328,-3.4386,-3.4405,-3.449,-3.4394,-3.4483,-3.4486,-3.4472,-3.4658,-3.4686,-3.483,-3.4597,-3.4601,-3.4603,0,-3.3947,-3.4002,-3.4146,-3.419,-3.4219,-3.4285,-3.4347,-3.4406,-3.4452,-3.4458,-3.4501,-3.4488,-3.4574,-3.4508,-3.4626,-3.4561,-3.4597,-3.4613,-3.4618,-3.4627,-3.4553,-3.4673,-3.4875,-3.4897,-3.4634,-3.4632,-3.4629,0,-3.4071,-3.4181,-3.4281,-3.4307,-3.4361,-3.4408,-3.4433,-3.4475,-3.4516,-3.4571,-3.4598,-3.4662,-3.4697,-3.4747,-3.4751,-3.4703,-3.4871,-3.4805,-3.4879,-3.4879,-3.4917,-3.4915,-3.5128,-3.4939,-3.4939,-3.4938,-3.4938,0,-3.4237,-3.4326,-3.4337,-3.4399,-3.4498,-3.4495,-3.4593,-3.4613,-3.4651,-3.4716,-3.4695,-3.4756,-3.4758,-3.4821,-3.4825,-3.4923,-3.4939,-3.4947,-3.4947,-3.495,-3.4949,-3.4974,-3.4964,-3.4944,-3.4943,-3.4942,-3.4941,0,-3.4392,-3.4403,-3.451,-3.4552,-3.4565,-3.4636,-3.4672,-3.4731,-3.4743,-3.4826,-3.4845,-3.4865,-3.4938,-3.4947,-3.5033,-3.5036,-3.5154,-3.5143,-3.5138,-3.5137,-3.5211,-3.5204,-3.5449,-3.5481,-3.527,-3.5272,-3.5274,0,-3.4498,-3.4566,-3.4615,-3.4657,-3.4684,-3.4752,-3.4794,-3.4794,-3.4839,-3.4896,-3.4949,-3.5019,-3.5076,-3.5195,-3.5217,-3.5282,-3.5273,-3.5355,-3.5283,-3.5283,-3.5275,-3.5272,-3.5278,-3.5369,-3.5371,-3.5373,-3.5375,0,-3.4685,-3.4687,-3.4748,-3.4812,-3.4862,-3.4912,-3.4959,-3.4995,-3.5,-3.5052,-3.5126,-3.517,-3.5257,-3.5328,-3.5393,-3.5418,-3.5398,-3.5397,-3.5418,-3.5421,-3.5416,-3.542,-3.5177,-3.5391,-3.539,-3.5388,-3.5388,-3.5387,-3.482,-3.4879,-3.4922,-3.4991,-3.5026,-3.5071,-3.5128,-3.5148,-3.521,-3.5281,-3.5277,-3.5359,-3.5403,-3.5488,-3.5518,-3.5582,-3.5555,-3.5585,-3.5593,-3.5601,-3.5608,-3.5405,-3.5594,-3.5593,-3.5593,-3.5592,-3.5592,0,-3.5006,-3.5033,-3.5096,-3.5162,-3.5216,-3.5192,-3.5242,-3.5289,-3.5362,-3.5405,-3.5461,-3.5547,-3.5616,-3.5643,-3.571,-3.5757,-3.5749,-3.5774,-3.5771,-3.5777,-3.5628,-3.5604,-3.5779,-3.5779,-3.5779,-3.5779,-3.5779,-3.5779,-3.5109,-3.5208,-3.5215,-3.5331,-3.5357,-3.5437,-3.5468,-3.5509,-3.5543,-3.564,-3.5697,-3.5714,-3.5751,-3.582,-3.5882,-3.5889,-3.5915,-3.5944,-3.5947,-3.5807,-3.5788,-3.577,-3.5747,-3.595,-3.595,-3.6091,-3.6092,-3.6093]},{"header":{"parameterUnit":"m.s-1","parameterCategory":1,"la1":30.2991,"la2":30.254,"lo1":-89.0895,"lo2":-89.0444,"dy":0.0017,"dx":0.0017,"nx":28,"ny":28,"refTime":"2023-11-11T03:00:00:Z","depth":0,"parameterNumber":3,"parameterNumberName":"V-component_of_WINDS"},"data":[0,0,0,0,0,0,0,0,0,0,0,0,0,0,0,0,0,0,0,0,0,0,0,0,0,0,0,0,0,0,0,0,0,0,0,0,0,0,0,0,0,0,0,0,0,0,0,0,0,0,0,0,0,0,0,0,0,0,-4.5978,-4.5978,0,-4.5978,-4.5978,-4.5978,-4.5909,-4.5907,-4.5905,-4.5903,-4.5904,-4.5906,-4.5907,0,0,0,0,0,0,0,0,0,0,0,0,0,-4.5915,-4.5917,-4.5978,-4.5978,-4.5978,-4.5978,-4.5978,-4.5978,-4.5909,-4.5907,-4.5904,-4.5902,-4.5903,-4.5905,-4.5907,0,0,0,0,0,0,0,0,0,0,0,0,0,-4.5932,-4.5917,-4.5978,-4.5943,-4.594,-4.5978,-4.5978,-4.5978,-4.5909,-4.5907,-4.5904,-4.5901,-4.5903,-4.5905,-4.5908,-4.5979,0,0,-4.5916,-4.5917,0,0,0,0,0,0,0,0,-4.5931,-4.5934,-4.5948,-4.5946,-4.5942,-4.594,-4.5956,-4.5979,-4.591,-4.5921,-4.5903,-4.59,-4.5918,-4.5919,-4.5926,-4.5979,-4.5979,-4.5916,-4.5917,-4.5919,-4.5919,0,0,0,0,0,0,0,-4.593,-4.5934,-4.5978,-4.5948,-4.5945,-4.5927,-4.5926,-4.596,-4.5935,-4.592,-4.5915,-4.5916,-4.5916,-4.5923,-4.5925,-4.5979,-4.5916,-4.5918,-4.592,-4.5921,-4.6089,-4.6092,0,0,0,0,0,0,-4.5933,-4.5933,-4.5978,-4.5978,-4.593,-4.5931,-4.593,-4.5944,-4.5935,-4.593,-4.5918,-4.5913,-4.592,-4.5922,-4.5925,-4.6006,-4.5919,-4.5921,-4.5923,-4.6086,-4.609,-4.6093,0,0,0,0,0,0,-4.5932,-4.5938,-4.5978,-4.5954,-4.5958,-4.5935,-4.5951,-4.5945,-4.5952,-4.5933,-4.5928,-4.593,-4.5918,-4.5921,-4.5966,-4.6006,-4.5922,-4.5925,-4.6083,-4.6088,-4.6092,-4.6171,0,0,0,0,0,0,-4.5931,-4.5938,-4.5965,-4.5955,-4.5959,-4.6019,-4.5953,-4.5947,-4.5957,-4.595,-4.5943,-4.594,-4.5916,-4.5962,-4.5968,-4.6008,-4.5927,-4.6079,-4.6085,-4.609,-4.6165,-4.6178,-4.6189,0,0,0,0,0,-4.5929,-4.5988,-4.5967,-4.5973,-4.5993,-4.6022,-4.6024,-4.5996,-4.5961,-4.5987,-4.5975,-4.594,-4.6,-4.5967,-4.5974,-4.6014,-4.6077,-4.6083,-4.609,-4.616,-4.6175,-4.6188,0,0,0,0,0,0,-4.6004,-4.5986,-4.5963,-4.6021,-4.6023,-4.601,-4.6043,-4.6014,-4.6026,-4.6019,-4.5983,-4.5982,-4.6032,-4.6028,-4.5991,-4.6082,-4.6032,-4.604,-4.6083,-4.6098,-4.611,-4.6109,-4.5929,0,0,0,0,0,-4.6028,-4.6052,-4.6035,-4.6088,-4.609,-4.6067,-4.6078,-4.6056,-4.6057,-4.6058,-4.6049,-4.6051,-4.607,-4.6084,-4.6101,-4.6164,-4.6161,-4.6195,-4.6207,-4.6217,-4.6224,-4.6256,-4.627,-4.6115,-4.6115,-4.6115,0,0,-4.6076,-4.6069,-4.6087,-4.6103,-4.6102,-4.6128,-4.6068,-4.6099,-4.6117,-4.6063,-4.6103,-4.6097,-4.6097,-4.6151,-4.6174,-4.6149,-4.6266,-4.6225,-4.6233,-4.6235,-4.6264,-4.6279,-4.6292,-4.6119,-4.6118,-4.6118,0,0,-4.6177,-4.6175,-4.6218,-4.6218,-4.6218,-4.6201,-4.6212,-4.6202,-4.6196,-4.6236,-4.6195,-4.6217,-4.6252,-4.6253,-4.6258,-4.6359,-4.6327,-4.6365,-4.6427,-4.6459,-4.6471,-4.6482,-4.6516,-4.6529,-4.6373,-4.6373,-4.6373,0,-4.6238,-4.6275,-4.6244,-4.6276,-4.6284,-4.6235,-4.6278,-4.628,-4.6285,-4.6291,-4.6263,-4.6304,-4.6301,-4.6353,-4.6378,-4.6384,-4.6394,-4.6366,-4.6472,-4.6482,-4.6492,-4.6524,-4.6537,-4.6378,-4.6377,-4.6377,-4.6376,0,-4.6348,-4.6375,-4.641,-4.6415,-4.6427,-4.6464,-4.6438,-4.6453,-4.643,-4.6417,-4.6458,-4.6452,-4.6467,-4.6478,-4.6456,-4.6527,-4.6511,-4.6478,-4.6427,-4.6512,-4.6542,-4.6554,-4.6384,-4.6383,-4.6381,-4.638,0,0,-4.6498,-4.6484,-4.6497,-4.6498,-4.6494,-4.6514,-4.6548,-4.6562,-4.6575,-4.658,-4.6608,-4.6638,-4.6607,-4.6613,-4.659,-4.6618,-4.6696,-4.6581,-4.658,-4.6602,-4.6773,-4.6797,-4.6812,-4.6675,-4.6677,-4.6679,-4.6773,0,-4.6595,-4.6653,-4.6625,-4.6687,-4.671,-4.6664,-4.6694,-4.6694,-4.6682,-4.67,-4.6687,-4.6708,-4.6666,-4.6669,-4.6694,-4.6681,-4.673,-4.6674,-4.67,-4.6701,-4.67,-4.6828,-4.6854,-4.6943,-4.6784,-4.6786,-4.6788,0,-4.6716,-4.6725,-4.6789,-4.6778,-4.6787,-4.6815,-4.6824,-4.6842,-4.6841,-4.683,-4.6836,-4.6807,-4.684,-4.679,-4.6834,-4.6797,-4.6806,-4.6801,-4.6804,-4.6804,-4.6749,-4.6831,-4.697,-4.6983,-4.6806,-4.6805,-4.6803,0,-4.6817,-4.6845,-4.6886,-4.6889,-4.6878,-4.6898,-4.6895,-4.6891,-4.69,-4.6908,-4.6914,-4.6926,-4.6933,-4.6943,-4.6918,-4.6884,-4.6965,-4.6913,-4.6956,-4.6957,-4.6975,-4.6974,-4.7116,-4.6983,-4.6983,-4.6982,-4.6982,0,-4.6927,-4.6968,-4.6931,-4.6957,-4.7,-4.6967,-4.7012,-4.7003,-4.7,-4.7022,-4.6983,-4.7005,-4.6971,-4.6989,-4.697,-4.7009,-4.7013,-4.7004,-4.6999,-4.7007,-4.7008,-4.7012,-4.7005,-4.6986,-4.6985,-4.6984,-4.6984,0,-4.7047,-4.7024,-4.7066,-4.7052,-4.7049,-4.7082,-4.7069,-4.7092,-4.7077,-4.7106,-4.7111,-4.7087,-4.7107,-4.7083,-4.7101,-4.7087,-4.714,-4.7126,-4.714,-4.7136,-4.718,-4.7176,-4.7329,-4.7347,-4.7203,-4.7204,-4.7205,0,-4.7119,-4.7149,-4.7137,-4.7149,-4.7148,-4.7168,-4.7177,-4.7145,-4.7156,-4.7156,-4.7179,-4.7195,-4.7206,-4.724,-4.7224,-4.7237,-4.7222,-4.7275,-4.7224,-4.7232,-4.7222,-4.722,-4.7222,-4.7285,-4.7287,-4.7289,-4.729,0,-4.7249,-4.7235,-4.7249,-4.7259,-4.7271,-4.7278,-4.7281,-4.7293,-4.726,-4.7275,-4.7294,-4.7303,-4.732,-4.7336,-4.7345,-4.7341,-4.731,-4.7306,-4.7316,-4.7325,-4.7332,-4.7327,-4.7168,-4.7302,-4.7301,-4.73,-4.7299,-4.7299,-4.7346,-4.7369,-4.7364,-4.7381,-4.738,-4.7384,-4.7404,-4.7391,-4.7406,-4.7417,-4.7398,-4.7422,-4.7419,-4.7427,-4.7427,-4.7445,-4.7422,-4.7438,-4.7441,-4.7445,-4.7451,-4.733,-4.7447,-4.7446,-4.7446,-4.7445,-4.7445,0,-4.7472,-4.7466,-4.7482,-4.7487,-4.75,-4.7469,-4.7471,-4.7484,-4.7505,-4.7505,-4.7516,-4.7538,-4.7553,-4.7538,-4.7551,-4.7568,-4.7554,-4.7572,-4.757,-4.7569,-4.7472,-4.7461,-4.7583,-4.7583,-4.7583,-4.7583,-4.7583,-4.7583,-4.7539,-4.7577,-4.7563,-4.7599,-4.7593,-4.7615,-4.7619,-4.7622,-4.7621,-4.7647,-4.7659,-4.7649,-4.7643,-4.7654,-4.7667,-4.7662,-4.7668,-4.7691,-4.7681,-4.759,-4.7577,-4.7564,-4.7553,-4.7693,-4.7693,-4.7777,-4.7778,-4.7779]}]]